Theta_e
318 317 317 317 315 316 318 318 319 323 327 328 327 325 320 318 321 323 321 319 319 320 319 320 319 319 321 322 323 322 322 321 322 323 322 322 322 323 323 324 326 324 323 319 313 316 318 317 317 316 319 320 316 319 317 317 321 320 326 328 327 330 328 327 325 321 322 325 321 318 321 322 320 317 317 321 329 333 334 340 338 332 333 331 330 330 333 334
317 317 318 318 317 316 317 318 316 317 323 328 328 325 322 319 320 322 322 320 320 320 319 320 320 321 323 323 323 322 322 321 322 323 322 321 320 321 322 323 325 326 325 320 315 317 318 317 316 317 323 325 319 319 320 316 319 327 329 325 329 336 332 328 325 321 320 320 319 319 321 321 321 319 318 322 330 332 334 339 339 340 338 332 331 332 333 333
317 317 317 317 318 316 316 317 316 315 319 325 327 325 324 321 320 321 323 322 321 320 320 320 320 322 322 322 323 323 323 322 324 324 322 321 322 321 322 323 324 326 325 322 319 317 318 317 314 318 324 325 321 320 323 317 318 326 324 321 333 337 330 325 320 318 318 317 318 318 319 319 320 319 318 323 329 329 330 339 341 345 345 338 333 332 333 332
316 316 317 317 317 316 316 315 314 317 318 321 327 326 324 323 320 320 323 323 322 321 320 321 321 321 321 322 323 324 323 324 326 325 322 322 323 322 322 324 325 326 326 324 321 318 318 315 315 325 329 327 326 324 322 317 315 318 318 322 329 327 323 322 317 316 317 315 317 319 318 318 318 317 318 324 328 327 325 331 339 345 343 336 333 332 332 332
315 316 316 317 317 316 316 314 313 318 317 318 326 326 324 324 321 320 322 324 322 320 320 320 321 320 321 323 324 324 323 326 327 323 322 323 324 323 323 325 326 326 325 323 320 316 317 315 319 331 335 330 328 324 319 316 313 314 319 320 320 318 317 319 316 314 315 315 317 320 319 318 317 315 320 326 325 324 323 325 333 341 337 333 333 332 332 331
314 314 315 316 317 317 316 314 313 317 317 315 320 325 326 324 323 321 321 324 323 321 320 320 321 321 323 324 324 323 323 328 326 321 322 322 323 324 323 325 326 326 324 323 318 316 316 317 320 327 334 334 327 322 317 314 313 317 324 318 313 315 314 317 317 314 316 317 318 319 319 317 317 316 320 323 322 320 320 326 334 335 332 332 332 332 333 332
314 313 314 315 316 317 317 315 311 312 315 314 314 319 327 326 323 323 321 323 324 323 322 321 322 323 324 324 324 323 323 327 322 321 323 321 323 324 324 326 326 324 322 319 316 317 318 320 323 324 329 331 327 326 320 314 313 323 334 322 312 312 312 316 316 315 318 319 318 318 317 317 318 318 318 320 323 318 315 323 331 331 330 331 332 332 333 332
313 313 314 314 315 316 317 317 312 310 312 314 314 314 323 327 324 323 322 323 324 324 323 323 323 323 324 324 325 326 326 326 321 321 324 322 322 324 325 326 325 323 319 317 316 318 319 321 324 322 326 327 325 329 323 317 316 325 333 320 310 310 311 314 315 315 317 317 317 317 317 318 316 314 316 319 321 317 318 326 330 330 331 332 333 333 332 331
313 313 313 313 315 314 315 317 315 312 311 314 318 315 318 326 326 324 324 323 322 323 323 323 323 324 325 324 325 329 328 325 322 321 324 324 323 324 325 324 325 323 318 317 317 317 318 321 323 322 326 327 325 328 325 319 317 320 321 314 311 312 310 312 314 315 317 315 315 318 317 316 313 312 317 319 317 318 325 334 335 332 333 333 333 332 331 331
313 313 313 313 314 314 314 316 317 315 312 312 318 318 318 325 328 326 325 324 322 322 323 324 324 324 325 324 325 329 327 323 322 321 323 324 324 324 324 323 323 321 317 316 315 316 318 320 319 320 323 323 324 325 324 323 319 315 313 313 314 313 311 313 313 314 316 314 314 318 316 316 315 313 318 318 318 322 331 338 334 333 335 333 333 332 331 331
311 311 313 313 314 315 314 315 317 316 313 311 315 318 319 324 328 326 325 324 323 323 324 324 324 324 324 324 326 327 325 324 322 320 322 324 324 323 323 322 320 319 317 314 315 317 317 317 315 317 319 320 324 322 323 326 319 312 311 316 316 313 312 315 314 314 315 313 315 318 315 315 314 315 318 316 319 325 334 338 333 334 335 332 333 332 330 330
310 309 311 312 312 314 314 314 316 317 314 312 314 317 318 322 327 327 326 324 324 324 323 324 324 324 323 324 326 324 323 324 322 320 321 322 324 323 322 320 318 318 318 313 314 316 316 316 315 318 319 318 321 321 323 323 315 312 317 320 318 313 313 315 315 315 314 313 315 316 315 317 315 317 316 314 321 327 333 337 334 333 334 332 333 331 330 329
311 310 310 310 310 312 313 313 314 316 316 314 314 315 316 321 327 327 326 325 324 324 324 324 324 323 323 325 324 320 322 324 322 321 322 322 322 320 318 317 316 317 320 316 314 315 315 316 316 317 317 317 319 317 320 319 314 315 319 321 320 315 315 315 313 314 314 313 314 314 316 321 318 317 314 316 326 332 334 336 333 333 333 332 332 331 331 329
309 310 310 309 309 311 312 313 313 314 315 315 315 315 314 318 325 326 325 326 324 324 324 323 323 322 323 324 320 319 323 323 322 322 321 323 319 314 313 313 313 314 317 317 315 315 314 314 314 313 313 314 315 313 315 315 313 315 315 319 320 316 321 322 315 313 313 312 313 313 316 321 318 316 314 316 325 332 335 337 332 332 333 331 332 331 331 329
307 308 309 309 308 310 311 312 313 313 313 314 316 317 313 313 322 326 325 325 324 323 323 322 321 321 323 324 319 319 322 322 323 322 321 322 317 313 311 310 311 311 312 313 314 314 313 312 313 313 312 311 312 313 316 314 312 312 313 319 319 315 322 326 317 314 314 312 312 313 315 317 315 317 314 312 322 331 333 336 332 331 332 331 332 330 331 330
308 308 309 309 308 308 311 311 312 313 313 313 316 318 313 310 317 325 325 324 324 323 322 321 319 320 325 323 319 319 321 322 322 322 322 321 319 315 310 309 310 310 312 312 313 313 312 312 313 313 312 311 313 314 316 315 314 313 313 319 321 316 315 317 315 315 315 313 312 313 316 318 315 315 313 310 319 328 329 333 331 330 330 330 331 330 331 330
309 309 309 309 309 308 309 311 312 312 313 314 316 317 314 310 313 322 326 324 324 323 321 320 318 321 324 320 319 322 321 320 321 322 321 320 321 316 310 309 308 308 311 310 312 312 311 312 312 312 312 313 314 314 316 318 317 315 313 314 318 316 313 314 315 315 314 314 314 313 314 317 316 313 313 310 314 322 326 328 328 327 327 327 329 330 330 330
309 309 309 309 310 309 308 310 311 311 313 314 315 317 314 309 312 322 325 324 323 321 321 320 319 324 325 319 320 323 320 319 321 321 319 319 319 315 310 309 307 308 310 310 311 311 311 313 313 314 313 313 313 314 319 319 317 316 313 314 315 314 313 313 314 314 313 314 314 314 314 315 315 313 314 311 310 316 319 318 319 322 323 323 324 326 327 328
309 308 309 309 310 310 309 309 311 312 313 314 315 316 314 310 315 324 323 322 322 321 323 321 321 327 326 320 319 320 319 319 320 318 317 317 316 312 310 308 308 310 312 312 312 311 313 314 315 316 314 314 313 314 319 318 315 316 315 315 316 314 313 313 315 314 312 313 314 314 315 314 314 314 313 311 309 312 313 312 312 315 317 319 318 320 323 325
309 308 309 309 309 309 310 309 310 312 313 314 316 316 315 313 318 325 321 320 322 322 324 322 322 324 321 318 317 317 319 318 318 315 314 316 313 311 310 308 310 311 312 315 313 311 313 315 315 316 315 314 314 314 317 316 314 314 315 314 315 315 313 312 315 314 312 313 315 313 313 314 314 314 313 311 310 311 312 312 312 311 312 314 316 316 318 321
309 309 309 309 309 309 310 309 310 312 313 315 317 317 317 314 317 322 321 321 321 321 322 321 321 319 316 316 316 316 317 316 315 313 314 315 313 313 312 309 311 312 313 314 312 311 312 316 316 316 317 316 314 314 315 314 313 312 313 313 314 314 314 312 313 314 312 312 315 314 313 313 312 312 312 311 311 312 313 313 313 311 310 310 313 314 314 316
308 309 308 309 309 308 309 310 309 311 314 315 317 318 317 315 317 320 322 324 321 319 320 321 320 316 313 315 316 317 317 317 315 313 313 312 313 316 313 310 310 311 312 312 312 312 313 315 316 314 316 315 313 312 313 313 313 312 312 312 313 315 314 313 314 314 312 312 316 316 313 314 313 312 312 312 313 314 313 312 312 312 311 310 311 312 312 313
307 307 308 308 308 307 308 310 310 311 315 316 317 317 316 315 317 318 322 325 321 318 318 322 321 315 313 315 317 318 319 319 317 313 311 312 315 316 312 309 310 311 311 311 312 314 315 316 314 312 312 313 312 310 311 313 313 313 313 312 314 315 315 315 315 313 311 311 314 315 315 315 313 312 313 312 312 313 313 312 312 311 312 312 310 310 311 312
306 306 306 307 307 307 308 309 311 313 315 316 317 317 315 315 316 318 321 323 322 318 318 321 319 313 314 316 317 320 320 318 317 313 310 312 314 313 311 310 310 310 310 311 312 313 315 314 312 311 311 313 313 310 310 312 314 314 314 313 313 314 314 315 314 313 312 311 312 313 315 319 316 314 316 313 310 310 311 311 312 312 312 312 311 311 311 312
305 304 305 306 307 307 307 310 312 314 315 316 317 317 315 315 317 318 321 323 322 318 318 320 318 313 313 316 317 318 318 315 314 312 310 311 312 311 311 310 309 311 310 311 312 312 314 312 310 311 310 311 312 311 311 312 314 316 315 313 312 312 312 314 315 313 312 314 315 312 316 327 328 320 318 314 311 310 310 310 312 312 311 310 311 311 311 311
303 303 304 306 308 307 308 311 312 313 315 315 316 317 316 315 317 318 320 324 322 318 320 322 319 315 315 318 317 315 320 318 312 310 310 310 310 311 312 310 310 311 309 310 312 312 313 309 309 311 310 312 313 311 312 313 314 315 316 314 311 311 312 315 316 314 316 318 315 311 317 328 327 321 319 315 313 313 311 310 312 311 310 310 311 310 310 310
303 303 304 305 306 308 310 311 312 313 314 315 315 317 317 315 317 317 319 324 323 320 322 322 319 317 316 317 316 316 325 321 312 309 309 310 309 310 313 311 310 310 307 310 313 313 311 308 309 312 310 312 312 311 312 312 313 316 317 316 314 312 313 318 318 317 320 319 315 315 317 319 317 316 318 313 313 316 314 312 314 311 310 310 310 310 310 309
303 304 306 306 305 307 310 311 312 313 314 315 316 317 317 316 317 317 319 325 324 320 322 320 317 316 316 316 317 318 319 316 313 311 308 309 309 309 312 312 311 310 307 311 315 312 309 310 310 311 311 311 311 312 314 313 313 317 319 319 317 315 316 319 318 318 317 314 318 320 314 313 320 323 322 314 311 316 317 316 317 315 312 310 309 309 310 310
303 304 306 307 307 307 309 311 313 313 313 314 317 318 317 316 317 318 321 325 322 320 322 319 315 316 316 316 319 318 314 314 316 312 308 308 309 309 311 310 309 310 308 310 315 313 309 310 310 309 310 311 311 314 315 312 312 315 320 322 321 322 322 319 319 319 315 312 317 322 315 312 322 328 324 315 312 316 319 317 316 316 314 310 309 309 308 309
304 304 306 307 308 309 310 311 312 312 313 315 318 317 316 317 318 321 323 322 320 320 320 317 316 317 316 315 318 317 314 315 313 309 309 310 310 309 309 308 308 310 309 310 316 316 310 309 310 310 312 311 311 314 313 312 313 315 319 321 319 324 325 323 326 323 314 314 317 322 319 312 317 325 320 315 316 318 317 315 315 315 314 312 313 312 310 309
304 305 306 307 308 309 311 311 312 313 313 316 318 316 316 317 319 323 323 319 318 320 318 316 316 316 315 317 318 316 314 313 310 309 310 310 311 309 307 309 310 312 311 310 314 314 310 310 310 311 314 313 311 313 313 313 316 317 322 321 317 323 323 322 328 321 314 317 317 318 317 311 314 320 316 315 317 315 313 314 315 315 316 316 316 315 314 312
304 305 307 308 309 310 311 311 311 313 315 316 316 316 317 318 318 322 321 317 319 320 318 317 316 315 316 317 317 315 314 312 310 311 310 310 311 308 308 311 310 313 312 311 314 313 312 314 312 310 312 313 312 314 313 313 315 317 322 319 316 320 319 317 322 319 317 318 314 313 314 311 313 315 315 316 314 313 313 312 313 314 315 315 314 313 315 317
304 305 308 310 310 311 312 311 311 314 316 316 316 317 319 320 320 321 319 317 320 320 318 316 315 315 317 318 317 315 315 312 310 312 310 311 311 308 311 313 311 316 315 312 314 314 315 317 314 311 311 312 313 312 313 316 315 314 317 317 318 320 317 315 317 317 318 319 313 310 312 313 315 315 316 316 312 313 314 310 311 312 311 311 310 311 316 321
305 309 313 312 311 312 312 311 312 315 315 315 318 319 319 322 320 319 317 316 318 319 317 316 315 316 317 318 317 315 317 315 311 311 311 311 311 309 312 312 312 318 317 313 314 314 316 317 314 313 312 312 311 311 317 321 316 315 318 320 322 325 322 318 319 319 320 319 313 309 312 318 320 316 315 314 312 315 314 312 312 311 311 311 311 313 316 320
309 313 315 313 312 312 311 312 314 315 315 316 319 320 321 322 319 317 316 315 317 318 317 316 316 317 318 318 316 315 318 316 312 312 312 311 311 310 311 310 310 315 315 313 314 314 316 316 313 312 311 312 312 314 318 318 315 316 320 319 320 324 325 320 318 322 324 320 315 311 315 322 320 314 313 311 311 314 313 312 314 314 314 316 319 321 320 321
313 316 315 313 313 312 312 313 315 315 316 317 320 321 321 320 317 317 316 315 317 317 317 318 317 318 319 317 316 316 315 315 313 313 313 312 312 311 311 310 310 312 313 313 315 316 316 315 312 311 310 311 312 314 316 316 315 314 314 317 318 318 323 322 314 314 315 315 317 314 314 320 317 313 316 315 314 316 314 313 316 316 316 318 322 325 323 323
315 315 314 313 313 313 313 314 315 316 317 318 321 321 319 318 316 315 315 315 316 316 317 319 318 318 318 316 316 316 315 315 314 314 314 314 314 312 312 313 311 310 311 313 314 315 316 314 312 313 312 310 308 311 315 315 315 316 315 317 316 312 319 325 318 313 312 314 320 317 313 318 316 314 320 318 315 315 314 315 317 317 317 318 321 325 325 323
314 314 315 314 314 314 314 315 315 317 318 319 321 319 318 317 315 315 315 315 316 316 318 319 319 319 318 317 316 314 315 317 315 316 316 314 316 315 312 313 311 309 311 312 312 314 316 316 313 312 313 311 308 312 315 311 310 316 318 316 315 316 318 319 318 317 313 312 321 321 314 315 316 317 321 317 316 318 315 317 318 316 318 320 320 321 319 316
313 314 315 315 314 314 315 315 316 317 318 320 320 318 316 316 315 315 315 315 316 317 318 319 319 319 317 318 317 314 316 318 315 317 317 316 318 316 312 313 312 309 310 313 314 313 315 319 316 311 310 312 311 312 315 313 309 312 313 310 313 318 319 317 316 318 316 314 319 320 315 316 318 320 322 316 317 319 315 316 320 317 318 320 317 315 313 313
314 315 315 315 314 315 315 315 316 318 319 318 318 317 316 315 315 315 314 315 316 317 318 318 318 318 317 317 317 314 317 318 316 318 318 317 317 314 313 313 311 309 310 314 316 313 313 318 318 312 309 311 314 315 316 315 312 312 313 313 312 311 315 318 316 317 320 321 321 317 315 322 323 318 317 316 315 316 314 315 319 320 321 321 317 313 311 312
314 315 316 315 314 314 315 316 319 319 316 316 316 315 316 315 314 314 315 316 317 317 317 317 318 318 317 317 316 314 317 317 316 318 318 316 315 314 313 312 310 309 310 313 315 315 314 315 317 315 312 313 317 316 315 315 313 314 316 315 314 313 316 316 312 315 316 318 322 318 313 321 326 316 312 314 314 313 315 316 320 324 326 325 320 315 311 311
314 316 316 314 314 315 316 318 320 317 314 315 315 314 314 314 313 314 314 315 317 317 315 316 318 317 317 317 315 315 316 316 316 318 317 316 315 314 313 311 309 308 310 313 312 314 317 318 317 316 315 316 314 309 308 312 313 314 314 314 314 314 316 316 317 320 316 313 317 317 312 315 321 318 313 312 314 315 316 319 323 326 326 324 321 320 318 316
315 316 315 313 314 315 317 319 318 315 313 314 315 314 314 314 313 313 314 315 316 317 316 316 317 316 317 316 315 315 316 315 316 316 315 313 313 313 312 309 309 309 311 314 311 313 318 319 319 317 316 318 316 311 308 309 311 313 314 314 314 314 319 326 328 325 319 314 314 313 312 312 318 321 314 310 314 316 316 317 320 324 325 321 320 325 327 325
316 316 315 314 314 316 318 318 316 314 312 313 314 313 313 313 313 314 314 315 315 316 315 315 316 316 316 315 314 315 316 316 316 315 314 313 311 311 311 309 310 310 310 312 312 315 319 317 317 318 317 318 319 317 313 310 312 316 315 315 317 317 319 321 319 315 314 319 318 313 312 315 322 322 314 309 311 315 317 317 316 321 324 321 322 327 329 329
315 316 316 314 313 315 317 315 315 314 313 313 313 312 312 313 313 314 314 315 315 315 315 316 316 316 315 315 315 315 316 317 316 313 313 315 312 311 311 311 311 309 312 316 314 318 325 320 315 317 317 315 316 316 314 313 313 315 316 316 317 317 315 313 315 313 313 317 318 313 312 314 319 319 314 313 313 314 317 317 313 313 316 318 320 326 329 329
316 317 317 315 313 314 315 313 314 315 314 313 313 312 312 313 313 314 314 315 315 315 315 317 317 315 314 315 315 315 316 316 315 313 312 314 314 311 309 311 312 312 317 321 316 318 325 320 313 315 314 312 315 317 316 316 314 313 316 316 315 314 312 314 318 316 314 316 315 314 314 312 313 314 315 317 318 316 316 315 314 315 317 319 318 321 326 327
317 317 316 316 315 316 315 314 314 315 315 315 314 312 312 313 314 314 315 315 316 316 315 315 315 315 314 315 315 315 315 314 314 313 312 315 317 313 309 310 312 317 322 318 313 319 324 317 313 315 313 314 324 325 317 315 315 313 315 315 314 313 312 314 316 313 315 316 313 314 317 313 314 318 320 319 319 318 316 315 316 316 316 317 317 320 326 327
315 316 316 315 316 317 316 314 314 315 316 316 314 312 312 313 314 314 315 315 315 315 314 314 314 315 314 315 316 316 315 314 313 313 312 314 315 312 310 310 311 317 320 313 310 316 319 315 313 313 312 316 325 325 317 315 315 313 314 314 314 314 313 313 313 313 315 314 311 316 319 314 314 318 320 320 318 315 314 313 313 312 311 315 321 326 330 331
312 315 314 314 316 317 316 314 313 315 316 316 314 312 312 313 314 314 314 314 314 313 314 315 315 315 314 314 315 315 315 314 314 313 312 313 313 311 311 311 311 314 314 312 312 314 314 317 316 312 312 314 318 319 317 315 315 314 315 314 313 313 313 312 312 312 314 313 312 318 320 315 314 316 319 320 314 311 314 315 314 314 315 319 326 332 333 333
314 313 311 311 315 316 316 314 314 315 316 316 314 312 312 313 313 314 313 313 314 314 314 315 315 314 314 314 315 315 314 314 315 314 312 313 312 311 311 312 313 312 311 310 311 311 313 317 314 311 313 313 313 314 314 314 315 315 315 314 312 312 312 311 311 312 313 312 311 314 317 314 313 316 317 315 312 312 316 317 316 317 318 320 325 329 330 331
312 313 310 312 314 315 316 315 315 315 315 315 314 312 312 312 313 314 313 313 314 314 314 315 315 314 314 314 315 315 314 315 315 313 312 312 312 311 312 313 312 311 312 312 311 313 317 316 310 312 314 312 312 314 313 312 312 314 315 314 311 311 311 311 312 312 312 312 312 314 313 311 313 315 313 311 313 316 316 315 316 319 321 321 323 327 328 330
311 313 312 313 314 314 316 316 316 316 315 314 313 312 311 312 313 313 313 313 314 314 314 315 314 313 314 314 315 315 314 315 313 312 312 311 311 312 313 313 312 311 313 313 313 316 320 316 312 315 315 312 312 313 314 314 313 313 314 313 310 310 311 310 311 312 311 311 312 312 311 311 314 314 311 312 316 316 315 315 315 318 322 322 320 322 323 324
Wind_Speed
16 16 20 26 29 31 30 24 20 23 32 42 41 40 41 39 40 40 41 43 40 39 39 38 36 34 32 30 27 24 22 20 18 17 14 16 18 13 13 12 11 15 12 10 10 11 10 7 6 7 5 5 4 3 6 5 1 2 2 3 2 4 4 4 6 5 3 3 5 6 7 10 6 4 2 2 4 3 2 3 2 3 3 3 4 8 28 30
15 16 17 20 24 26 31 31 25 21 25 40 43 40 42 40 41 41 40 42 40 39 39 38 36 35 32 29 26 23 21 19 17 15 18 18 17 15 13 13 12 12 12 12 12 14 11 5 7 8 4 4 3 3 4 3 1 2 2 2 3 5 5 5 6 5 3 2 3 5 7 9 8 7 4 3 3 2 3 2 4 3 3 2 4 18 28 28
16 16 17 19 20 23 27 30 31 25 21 33 44 41 41 42 41 40 39 41 41 39 39 38 37 35 32 28 25 23 19 14 9 11 21 19 16 18 15 13 14 13 11 11 11 11 11 12 13 9 4 3 1 2 2 2 2 1 3 1 5 5 5 4 5 6 5 2 1 5 5 6 7 6 4 5 6 5 6 5 1 3 2 4 9 20 26 26
16 16 17 18 20 23 25 26 29 27 21 27 42 44 41 44 43 41 39 39 40 39 39 38 37 35 32 29 25 23 17 7 3 13 22 20 15 17 17 15 16 15 12 11 10 8 13 16 11 6 4 2 2 2 2 2 2 1 3 2 4 3 3 5 5 5 5 5 4 3 2 4 6 4 4 7 7 5 7 8 7 8 8 8 10 17 23 24
16 16 17 18 19 22 25 26 27 27 22 24 37 45 42 44 44 43 40 39 40 39 39 39 38 35 32 29 26 24 15 3 6 17 24 21 18 17 18 18 16 16 14 13 11 12 15 13 7 5 4 2 0 2 2 3 2 1 1 3 6 1 3 6 4 3 3 4 5 5 4 5 4 2 5 11 9 7 6 9 9 9 12 14 15 18 20 21
16 17 17 18 19 22 24 27 29 28 24 23 29 39 46 46 45 45 42 39 39 39 40 39 38 36 32 30 28 25 14 2 3 13 23 25 22 19 20 20 18 17 16 15 15 15 12 7 5 3 3 2 2 3 1 4 1 1 2 4 6 2 4 6 1 2 2 5 6 6 4 4 6 3 5 11 11 3 2 7 9 10 15 20 21 19 17 17
17 17 17 18 19 21 23 27 31 29 26 24 26 31 43 48 46 46 44 41 38 38 40 39 37 35 32 31 26 18 8 4 1 8 21 27 25 22 21 21 20 19 19 19 17 11 6 5 4 4 4 2 3 4 2 2 1 3 1 4 6 5 6 7 5 4 1 6 7 4 2 5 7 4 2 8 10 3 5 5 10 10 14 18 18 17 18 20
17 17 17 19 19 20 21 25 30 31 28 26 26 28 36 46 48 47 47 44 39 37 38 38 37 35 36 31 18 7 5 6 2 4 17 27 27 25 24 22 22 22 23 23 20 12 6 6 5 3 3 3 4 4 2 1 1 3 1 4 7 7 8 9 7 6 2 3 4 6 3 3 3 1 2 8 9 3 3 6 10 10 11 13 13 15 16 18
17 17 17 19 20 20 21 23 27 32 30 27 25 26 31 43 48 47 48 45 41 38 35 36 36 36 37 26 11 4 8 12 7 5 15 28 30 28 27 24 25 24 23 24 23 19 9 6 7 4 3 3 3 4 2 2 0 1 2 2 6 9 10 8 6 5 4 1 3 6 2 3 1 1 3 8 7 1 3 8 9 9 10 10 11 13 15 15
17 17 17 19 19 19 21 22 25 29 31 29 26 25 30 41 48 47 48 46 43 40 37 37 37 38 32 18 8 5 10 15 12 6 13 26 30 30 29 27 27 27 23 21 22 20 11 8 8 5 4 2 1 1 0 2 2 1 3 4 5 8 9 4 4 7 3 2 2 6 3 2 2 1 4 5 4 6 7 7 8 10 11 11 10 11 15 16
19 18 18 19 20 20 20 23 24 27 31 30 28 26 28 39 48 47 47 46 44 44 42 41 40 37 27 14 9 6 9 17 15 10 14 22 29 30 29 29 29 28 23 16 18 22 15 13 14 7 2 2 3 0 3 2 3 1 6 6 6 8 8 4 4 7 3 1 2 6 4 2 3 0 6 5 3 7 9 8 8 10 10 10 11 10 12 16
19 20 19 19 20 21 21 23 24 25 30 32 31 29 28 34 44 47 47 47 45 45 43 42 42 36 22 10 8 6 8 18 18 14 17 21 27 30 28 30 29 28 24 16 17 20 14 19 19 6 2 6 6 1 3 2 2 2 6 5 9 10 8 6 2 5 4 1 2 4 1 3 3 5 6 2 3 6 8 9 8 9 8 8 10 8 9 14
20 20 20 20 21 22 22 23 25 25 28 32 32 30 29 32 40 46 47 47 45 45 43 42 41 30 17 6 6 8 9 15 18 17 20 22 25 28 28 29 28 26 25 21 20 17 15 23 20 6 4 7 4 2 3 4 2 2 4 3 5 7 7 5 0 2 2 1 0 3 2 5 8 11 3 2 4 7 7 8 8 8 7 7 7 7 8 12
20 20 20 21 22 23 23 24 26 26 26 30 32 32 31 32 38 45 45 46 45 44 43 43 38 21 10 4 4 10 10 13 20 21 24 26 25 24 25 28 25 23 22 21 21 17 17 20 14 7 3 3 4 4 5 4 2 2 2 2 1 1 5 6 1 2 3 1 2 4 3 6 9 10 5 2 5 8 7 7 7 7 6 6 7 8 8 11
22 22 21 22 23 24 25 25 26 26 26 28 30 32 33 32 37 44 44 44 45 44 43 39 31 14 4 3 3 10 12 14 21 25 27 30 28 21 21 24 20 17 17 17 18 18 18 16 9 6 2 1 5 6 4 2 1 1 2 1 1 2 5 7 1 5 5 1 2 5 3 7 8 8 7 4 6 7 8 8 8 8 8 8 7 8 8 9
22 22 22 23 24 26 27 27 27 28 27 28 28 29 34 35 37 45 47 44 42 44 40 30 23 13 3 4 6 11 12 12 20 25 27 31 30 24 22 20 14 13 13 12 16 18 17 10 3 3 3 2 5 5 4 3 1 3 2 3 4 4 4 5 2 4 5 1 2 1 2 5 5 4 6 2 7 7 7 8 8 9 9 8 7 8 8 8
23 23 23 23 25 27 29 29 29 29 27 28 27 26 32 35 37 43 48 45 43 44 38 26 23 14 3 3 7 10 10 11 20 26 27 28 29 31 28 15 10 13 11 9 13 13 10 4 1 2 3 3 4 5 5 4 4 3 1 2 4 4 4 4 3 3 3 2 3 3 3 7 6 4 5 2 6 7 8 9 8 8 8 7 7 7 7 8
24 25 25 25 26 27 30 31 30 31 30 28 25 26 31 35 38 43 48 43 36 35 28 20 20 11 3 8 8 9 14 17 24 27 26 24 26 34 29 14 11 14 11 6 6 6 3 1 1 2 3 4 5 6 5 5 6 6 4 3 3 4 5 4 4 3 5 3 4 4 5 11 12 9 5 1 5 7 8 7 5 7 7 6 7 7 8 9
26 26 26 26 27 28 30 32 33 32 31 28 25 25 25 25 31 37 44 38 25 16 12 12 15 7 2 12 10 9 21 26 24 23 22 21 23 28 22 15 13 11 8 4 3 4 3 3 2 4 6 6 8 8 7 5 8 8 5 4 4 5 5 5 4 4 5 5 5 7 7 11 13 12 6 1 4 7 7 6 5 7 7 6 6 7 9 9
26 27 27 27 29 30 31 33 35 34 32 29 26 21 13 12 15 14 21 24 17 10 10 17 19 9 3 7 12 16 21 22 16 14 20 23 24 21 11 9 9 5 6 7 5 4 4 5 6 7 9 10 11 9 7 6 9 9 5 4 6 4 4 4 3 5 1 4 6 7 8 11 12 11 6 1 1 5 7 8 9 8 7 7 8 9 10 11
26 26 27 28 30 31 32 35 36 35 34 31 29 18 8 14 12 4 9 12 11 7 9 21 22 8 2 7 17 21 15 10 8 9 21 25 24 18 5 5 9 4 5 7 4 2 3 7 8 7 8 9 9 7 6 6 7 8 5 4 4 3 4 5 2 4 3 3 5 2 5 11 12 12 6 2 3 6 9 10 11 11 8 7 8 11 11 10
28 27 28 29 31 33 33 36 38 38 35 32 30 15 10 25 21 10 11 9 10 9 8 23 21 3 6 14 22 23 12 7 7 7 18 21 18 13 5 6 10 6 5 6 5 3 4 7 6 5 6 7 6 5 7 6 5 5 3 3 3 2 3 5 3 2 2 2 4 1 5 10 13 11 6 5 6 7 9 11 12 11 9 8 9 11 11 10
30 30 31 30 32 36 36 37 39 38 36 32 28 19 20 33 26 15 8 5 10 8 6 21 18 6 10 15 23 26 14 9 10 10 20 20 13 10 8 9 10 7 7 8 7 7 6 6 7 6 5 9 6 5 7 7 6 5 3 4 3 2 1 3 3 2 2 1 2 2 3 7 9 8 6 8 9 7 7 9 9 8 9 12 11 10 9 11
32 32 33 32 35 37 37 38 38 38 39 34 32 33 34 31 23 20 8 4 5 0 2 18 12 7 12 14 23 24 12 10 11 14 22 18 10 9 10 11 11 8 8 10 10 9 5 5 7 8 6 10 8 6 8 7 6 6 5 5 4 3 4 4 3 3 3 2 1 2 3 5 6 7 7 6 4 6 7 7 8 7 9 10 8 8 9 11
35 35 35 36 35 37 38 35 36 40 37 32 35 39 38 29 22 25 12 2 4 1 2 13 4 6 14 16 20 15 7 5 5 13 20 16 12 10 7 5 7 10 9 9 9 7 5 5 9 10 7 9 9 8 8 7 6 6 5 7 7 6 5 3 2 2 2 4 2 1 2 5 5 5 8 4 1 6 6 5 10 9 8 8 8 10 11 11
38 37 38 37 35 40 33 22 33 42 30 25 37 37 36 35 27 22 9 1 5 4 8 12 5 12 17 10 11 10 8 4 3 15 19 17 15 10 8 3 1 7 9 8 5 3 4 3 9 11 9 9 9 8 8 8 6 5 5 8 9 7 5 4 2 2 1 4 3 1 3 6 6 5 8 4 3 8 6 5 10 9 7 8 9 11 11 11
39 39 41 38 38 40 25 16 32 35 19 23 41 38 34 40 31 14 4 3 6 7 13 10 4 16 18 10 14 13 10 6 6 13 16 18 14 6 9 8 3 4 5 5 3 3 4 5 7 10 9 9 8 7 8 9 7 4 4 8 8 7 7 7 6 5 4 3 4 3 3 3 5 6 6 3 4 8 8 7 10 10 10 10 11 12 12 12
42 42 40 40 43 43 34 28 27 25 25 31 40 38 35 41 29 9 3 6 6 6 9 6 5 15 12 6 11 5 6 14 11 10 15 18 12 3 8 12 9 9 5 7 6 3 4 8 9 10 9 7 7 6 7 9 7 6 4 7 5 5 6 5 6 5 2 1 5 3 1 3 5 6 5 3 3 8 9 9 10 11 11 11 11 12 12 13
45 44 41 43 44 45 48 40 27 29 41 38 35 38 43 42 22 4 3 5 4 5 7 8 9 14 10 5 6 1 5 13 7 5 10 11 4 3 7 10 11 13 7 5 6 2 2 7 10 11 8 7 7 5 9 11 6 5 5 7 5 4 3 3 5 4 2 1 6 5 2 3 5 6 4 2 2 6 8 8 9 10 10 9 9 11 11 10
48 46 45 46 42 45 49 41 37 41 41 37 38 42 42 32 13 5 6 4 3 4 6 8 8 14 17 13 6 1 5 8 4 8 8 4 2 4 3 5 8 10 4 2 5 4 1 1 4 6 6 6 6 2 4 9 7 4 5 6 5 4 4 3 2 3 2 4 6 5 2 2 4 6 4 4 4 6 7 7 8 10 9 7 7 9 9 8
49 49 48 47 48 48 37 29 41 45 37 40 46 41 27 13 6 9 8 3 5 5 7 10 12 17 22 19 10 5 6 8 9 14 10 4 3 4 5 5 4 6 5 4 5 2 2 3 2 2 2 5 6 3 3 0 5 6 5 4 3 1 2 2 3 2 4 6 5 3 1 3 5 5 3 6 6 5 7 7 10 11 9 7 6 7 8 7
52 52 50 51 56 52 38 35 45 44 42 47 42 25 12 7 5 6 6 7 7 7 10 14 16 18 20 18 12 9 7 9 13 17 15 11 8 8 11 9 7 7 7 10 6 1 2 2 1 1 1 4 7 4 2 3 2 5 5 5 5 1 1 3 2 1 5 5 2 1 2 3 6 6 6 9 10 9 9 9 10 10 10 9 8 7 7 6
55 53 49 57 61 56 53 55 51 46 50 50 31 10 8 9 7 4 7 7 6 9 13 16 20 23 23 18 12 10 7 9 14 16 14 12 8 8 6 6 9 7 5 8 8 5 3 4 2 2 2 2 8 7 3 1 3 5 5 6 6 4 4 6 4 1 4 4 2 1 1 3 4 5 9 12 12 11 9 9 9 9 10 11 9 8 7 7
55 46 48 64 66 62 65 58 50 54 56 41 19 8 10 11 5 8 9 6 6 13 16 18 22 23 20 16 13 12 7 7 15 16 13 11 8 8 6 6 9 5 5 7 5 7 8 4 4 6 2 3 7 6 7 7 5 5 5 5 5 5 5 6 4 3 4 3 2 2 2 3 3 3 8 11 10 9 6 7 7 8 9 9 8 8 8 8
46 45 56 62 61 65 67 55 54 61 49 26 13 10 12 8 4 8 9 5 7 13 15 17 20 19 14 9 12 11 3 6 14 13 12 13 11 12 11 10 11 6 7 9 3 6 11 5 2 1 0 5 7 5 6 9 5 4 3 5 5 6 5 2 3 5 4 1 3 3 3 4 3 6 8 6 7 9 8 8 7 8 9 6 7 8 8 8
40 54 55 51 51 59 62 57 61 61 38 18 14 11 9 5 4 8 9 9 12 16 19 16 14 15 11 7 10 9 1 5 14 10 8 12 11 13 12 8 9 8 9 9 3 4 9 3 3 2 2 2 5 4 3 5 5 2 3 5 6 4 7 4 1 1 3 2 4 2 4 5 3 7 8 4 7 9 8 7 7 9 8 5 7 8 7 7
42 41 37 38 47 57 60 61 63 51 28 17 16 10 5 3 5 9 11 14 18 21 22 16 12 14 11 7 9 10 5 7 12 9 8 9 9 13 13 7 8 12 10 7 2 2 6 3 3 2 3 0 0 3 2 2 4 5 5 7 3 2 3 4 2 1 1 4 5 0 4 5 2 5 6 5 7 11 10 7 6 7 6 6 8 9 8 7
32 24 22 30 50 59 61 66 59 35 16 16 15 8 6 5 7 10 12 15 16 18 19 15 13 15 15 12 12 14 14 12 12 11 10 8 7 12 18 12 10 15 11 6 4 2 5 4 3 1 3 1 2 4 2 3 2 4 4 4 4 3 2 1 3 3 2 4 4 3 4 4 5 5 4 4 7 9 10 7 6 7 6 6 8 9 9 7
23 17 12 29 57 61 64 65 45 20 13 15 13 8 5 7 10 12 14 16 16 16 16 13 13 14 16 17 17 19 19 16 17 14 11 11 7 11 20 13 8 16 14 8 6 4 4 4 1 2 1 1 2 2 6 3 2 2 2 2 2 3 4 3 3 4 3 3 3 3 5 4 6 6 5 7 8 9 9 7 6 8 7 6 7 8 8 6
16 11 5 35 61 61 66 54 23 12 14 11 9 8 7 9 11 13 16 18 15 12 13 16 17 16 17 17 15 15 13 13 18 13 9 11 5 6 17 14 9 14 11 7 6 4 2 3 3 1 1 2 2 3 8 8 4 3 3 4 2 1 2 2 1 3 4 3 3 2 5 6 5 5 9 10 10 11 11 7 6 8 7 7 7 6 7 6
14 6 5 39 61 61 54 28 8 11 11 8 9 8 10 12 11 13 15 15 11 5 4 13 18 15 17 18 15 14 10 9 14 10 4 9 7 4 12 15 13 14 10 7 7 5 2 3 6 4 1 3 3 3 5 7 6 6 5 6 6 3 4 3 4 1 2 3 4 3 6 9 5 5 8 11 11 11 9 5 6 7 7 7 6 6 6 6
11 4 11 41 61 57 34 9 7 11 7 9 10 7 10 13 13 16 16 13 9 3 2 7 13 11 12 15 16 16 13 9 14 12 3 8 10 4 7 13 15 16 12 8 5 4 3 5 5 3 3 5 3 2 2 3 2 4 3 4 6 5 5 6 6 3 0 2 2 3 5 9 4 7 9 9 7 5 4 4 5 7 7 6 7 6 6 6
5 6 22 47 60 47 22 10 11 8 5 9 10 9 11 11 14 17 16 14 10 4 3 6 10 10 10 11 13 16 14 8 11 9 2 4 6 3 8 16 18 16 11 7 6 4 3 5 4 1 3 3 4 4 3 2 2 2 3 2 5 5 4 5 6 4 3 4 2 2 5 8 3 2 4 4 3 3 4 5 6 7 7 6 6 6 6 5
3 8 15 39 55 37 16 12 10 7 8 10 11 12 8 7 15 19 17 18 12 8 9 9 12 13 11 13 15 18 17 9 8 7 2 3 2 1 11 19 19 17 10 7 9 6 3 3 4 4 2 2 3 3 3 2 2 3 2 2 4 4 6 4 2 3 2 7 7 5 8 8 5 3 3 3 4 5 7 6 6 7 7 6 5 5 5 4
7 9 4 20 35 23 10 9 10 10 11 12 13 14 11 8 13 18 21 20 13 12 11 8 11 12 9 13 14 15 13 6 6 6 3 4 1 1 11 20 20 14 7 8 11 7 3 4 4 6 7 7 7 5 5 5 3 1 2 4 5 7 9 5 2 3 6 7 9 9 7 4 3 3 4 4 5 6 8 6 5 6 7 7 6 5 5 4
9 8 4 11 15 13 8 6 11 13 13 14 11 10 15 14 10 14 19 15 8 9 7 4 9 10 9 13 13 13 13 6 7 6 3 6 3 2 8 17 16 11 8 14 16 8 4 4 5 8 11 11 8 4 5 10 8 7 8 9 9 9 10 7 4 6 8 4 6 10 4 0 3 3 3 6 7 6 7 6 5 6 7 7 6 5 6 5
7 6 9 9 7 13 11 6 11 13 15 17 10 9 16 16 12 13 12 8 5 7 6 4 10 13 14 19 15 14 14 7 9 12 7 6 3 3 3 7 9 12 13 15 14 7 5 4 9 11 11 8 5 5 8 13 12 14 12 11 10 9 9 10 10 11 6 4 6 6 6 5 8 6 7 8 7 5 6 5 6 6 6 6 5 5 6 6
3 6 9 5 3 11 12 8 10 11 17 18 10 13 20 18 16 15 10 6 7 8 7 6 14 18 20 23 17 15 15 9 8 14 11 8 7 6 6 2 3 11 13 11 9 7 6 7 9 10 7 2 4 7 10 11 9 10 12 14 13 12 13 17 20 13 7 7 12 6 9 12 9 6 9 9 5 4 6 6 5 3 4 5 5 6 7 7
3 4 4 4 4 11 14 11 9 12 17 14 8 12 19 20 20 17 11 9 9 12 12 12 19 23 22 23 18 14 17 14 13 16 15 15 14 12 11 5 4 6 9 10 8 3 4 6 6 8 6 2 3 6 10 10 6 7 11 15 15 17 20 22 22 14 9 14 12 3 5 11 6 7 10 7 7 6 6 6 5 3 3 3 4 7 7 8
4 6 4 4 5 13 18 14 11 12 12 10 10 12 15 20 22 16 13 15 17 17 16 18 25 26 26 26 21 20 26 27 25 22 20 20 17 14 12 8 5 4 4 8 6 1 2 5 4 7 5 1 2 4 6 7 8 7 9 13 16 20 21 20 17 10 8 14 10 4 10 11 5 8 9 5 3 4 6 7 5 5 5 5 6 7 8 8
4 7 8 7 5 10 16 15 14 14 10 9 12 13 15 21 23 18 12 12 17 20 21 25 26 22 22 25 25 27 30 28 24 20 20 20 16 10 6 5 8 9 5 5 5 2 3 3 3 6 6 4 2 5 6 5 5 2 9 16 19 19 16 14 12 10 11 14 11 9 13 12 6 6 5 3 4 6 10 9 6 6 7 6 7 8 8 9
4 6 6 7 7 10 13 12 13 14 10 9 11 13 17 20 21 19 11 4 6 12 16 21 21 15 17 25 28 25 19 15 13 12 13 14 11 8 7 9 15 15 9 6 3 2 6 5 3 5 7 4 2 5 8 8 6 4 12 15 17 14 11 10 10 13 15 12 10 12 14 11 5 5 5 5 7 10 11 9 6 7 7 7 8 9 9 9
Wind_Direction
235 232 230 229 235 235 232 230 232 235 218 203 202 202 197 198 202 203 201 200 200 199 199 200 200 201 199 196 194 193 191 185 181 182 195 206 197 185 181 176 160 161 157 149 136 120 108 88 114 127 92 48 12 326 334 332 43 41 87 128 188 184 194 188 177 192 188 205 205 209 180 162 184 199 177 63 55 61 84 349 324 335 354 202 267 158 157 157
233 230 232 231 236 236 232 233 235 244 229 205 200 201 198 198 201 203 203 202 201 201 199 197 197 196 194 193 190 188 185 182 178 188 207 208 201 195 188 183 172 164 161 160 151 131 120 113 134 139 98 35 354 332 337 328 42 97 123 141 218 198 208 200 176 188 197 235 229 216 191 176 184 172 159 148 176 167 144 298 332 345 9 60 145 149 152 155
232 228 231 231 235 236 233 234 235 240 240 214 199 197 199 199 200 202 204 202 200 200 197 195 196 193 193 190 186 184 175 166 167 209 215 206 205 201 189 187 180 172 168 170 171 154 146 148 141 125 78 53 342 327 5 349 340 151 132 180 242 214 241 237 190 200 206 196 201 227 204 185 191 161 157 163 173 196 190 204 212 211 188 116 147 152 152 156
232 227 227 229 231 235 237 235 232 232 240 225 202 194 198 199 199 201 202 202 199 198 196 195 195 194 193 188 183 177 159 133 209 226 214 200 198 196 187 183 175 175 175 173 179 166 151 145 130 96 84 83 342 348 26 3 333 290 141 200 257 205 254 255 200 214 221 187 172 195 159 181 195 157 151 141 147 228 232 213 197 188 172 153 161 161 159 161
233 230 227 229 226 229 237 232 228 228 234 233 208 197 198 199 197 198 200 201 200 198 197 195 195 194 190 183 177 165 143 93 232 217 211 197 190 187 183 179 172 176 173 172 169 141 139 137 110 66 69 100 47 50 360 321 357 354 263 267 285 232 254 267 196 201 229 183 146 139 169 181 165 146 162 156 171 223 226 208 198 175 163 163 166 167 167 168
233 233 230 230 227 224 233 231 227 229 233 239 225 205 199 200 198 195 198 201 200 198 195 194 192 189 184 177 171 163 155 190 207 201 202 195 188 179 177 178 174 177 173 169 159 137 134 124 107 112 79 102 151 142 188 287 340 91 276 297 307 311 265 283 341 252 198 144 158 169 203 152 136 194 185 178 194 241 266 187 176 174 168 164 163 166 172 175
233 233 231 231 232 225 229 231 228 231 234 237 244 224 202 199 199 195 197 200 200 195 192 191 188 183 177 169 168 171 186 232 169 181 193 193 189 177 172 177 175 175 170 159 147 139 138 120 126 129 108 123 165 164 165 271 346 104 212 303 324 328 282 288 329 318 140 165 191 163 160 156 169 203 155 203 219 309 329 159 146 158 160 158 161 170 179 182
232 232 232 232 235 230 229 231 228 230 234 233 241 239 212 198 199 197 195 198 197 193 190 187 185 178 170 165 165 176 211 220 194 155 186 190 187 177 172 175 177 175 169 161 152 151 146 132 152 131 135 208 173 153 163 222 43 81 153 298 322 318 294 296 307 322 6 198 186 115 147 212 205 189 153 222 234 311 356 124 127 139 148 161 171 178 183 186
234 232 231 233 235 233 231 231 229 227 230 232 232 239 226 203 198 199 196 197 196 195 193 186 182 175 169 165 152 164 205 205 188 127 168 181 182 179 178 176 178 177 171 170 163 158 159 162 180 163 154 211 158 139 173 178 141 97 183 289 318 312 307 314 305 313 359 285 162 134 167 296 320 317 247 233 215 186 106 127 133 141 156 176 180 184 186 189
236 234 230 232 234 233 231 229 232 227 224 230 231 236 234 209 198 198 195 195 195 195 194 189 180 172 169 162 143 183 206 193 187 149 153 175 179 176 179 179 177 177 171 171 168 165 173 174 163 133 113 119 120 128 217 160 171 258 334 315 303 311 307 323 315 297 330 15 188 159 161 289 317 346 257 250 168 139 127 138 152 155 170 184 185 192 190 193
239 239 233 231 234 232 231 230 231 229 224 229 233 232 234 213 197 195 193 192 193 190 190 187 178 173 170 160 160 193 193 182 183 168 156 172 180 177 179 180 177 177 172 168 175 178 180 160 140 119 128 134 110 54 285 170 152 360 11 346 314 333 315 288 304 296 303 55 159 138 133 293 342 281 237 251 158 143 142 155 171 173 181 186 189 194 194 201
242 243 239 233 236 234 232 233 231 230 227 229 233 230 236 224 198 191 191 189 189 187 184 184 179 174 168 164 188 183 170 179 178 165 161 171 180 182 182 179 178 181 176 171 181 186 181 159 145 127 188 143 120 197 248 156 105 39 55 15 322 346 328 277 256 300 308 203 170 128 128 302 274 230 238 246 157 136 143 167 181 186 190 191 193 195 200 207
242 242 242 237 238 238 235 236 233 233 231 229 232 229 233 231 204 192 190 187 188 186 185 185 181 173 165 174 202 173 156 173 177 166 164 172 177 179 180 177 179 186 188 187 184 184 182 169 156 137 153 133 134 177 132 107 61 22 68 56 330 349 321 286 198 305 283 208 259 142 210 273 243 234 233 119 146 125 143 182 191 195 196 195 196 200 208 209
246 243 243 239 238 240 237 239 235 234 237 231 232 231 230 230 210 195 189 186 186 186 186 184 179 176 179 183 172 174 160 160 174 170 167 173 170 168 174 175 179 186 192 191 181 177 177 168 144 114 141 124 138 131 96 88 66 50 68 67 2 343 283 290 345 163 188 219 19 117 195 262 249 250 264 201 165 148 170 194 199 202 201 199 201 205 213 213
249 247 243 241 239 240 239 239 237 236 240 237 235 233 230 231 217 198 188 185 184 183 182 179 179 176 189 226 180 174 163 156 171 172 172 173 162 159 171 174 178 182 184 187 181 175 165 153 122 119 160 70 124 115 95 102 93 156 176 174 217 213 272 298 288 172 183 294 19 117 192 267 265 265 276 237 177 174 187 197 202 206 205 203 205 209 215 221
247 247 243 241 238 240 239 237 239 236 238 239 237 234 229 232 225 203 190 186 183 181 176 175 181 178 177 206 166 165 162 158 171 173 174 175 167 162 162 160 161 165 170 180 179 172 160 144 117 141 125 108 134 119 108 117 184 217 187 174 198 209 268 302 293 204 189 133 333 162 194 264 270 275 307 267 181 188 198 206 209 208 212 208 206 213 217 226
244 246 244 241 237 237 238 236 237 236 236 237 233 233 228 230 230 207 189 184 179 175 172 172 177 181 212 159 146 176 174 155 168 169 169 175 175 163 154 143 136 139 137 149 162 162 161 161 159 152 121 136 156 135 137 176 197 202 172 180 205 207 231 270 280 239 177 152 226 208 215 247 253 270 317 304 175 189 210 214 215 213 221 216 212 220 222 226
243 246 243 242 238 235 235 234 235 234 235 234 229 228 225 229 230 203 180 173 168 165 169 170 169 173 219 185 181 187 171 158 161 163 164 172 174 163 154 141 131 125 109 106 147 147 149 195 128 143 158 166 168 165 174 186 174 172 173 178 206 215 220 245 264 218 159 175 218 187 227 255 262 271 280 239 167 192 224 234 238 226 227 227 221 226 227 229
245 246 243 242 240 236 234 232 233 232 231 231 225 221 220 230 229 195 167 159 158 163 165 160 171 180 183 191 193 163 162 161 156 157 160 164 165 157 146 134 127 120 118 119 175 170 125 104 130 167 181 181 181 187 185 165 161 172 172 172 196 215 232 239 254 253 173 172 219 196 215 244 254 262 255 193 165 188 235 269 262 236 226 229 226 228 231 232
247 245 242 243 242 239 235 231 231 229 227 224 210 202 200 217 231 200 160 158 171 179 154 158 177 180 88 169 162 139 149 152 143 150 157 159 155 143 126 123 113 99 143 153 175 185 133 155 193 193 185 183 182 186 178 159 165 176 170 183 209 213 257 263 271 300 256 171 232 212 220 244 249 260 260 239 185 192 218 240 244 240 225 222 224 229 230 230
248 245 242 242 242 240 236 231 230 226 225 217 199 191 183 192 216 223 154 163 186 187 156 164 172 173 95 149 148 135 127 117 100 132 153 156 151 144 149 145 131 141 162 148 145 120 143 184 200 190 177 173 171 169 170 174 172 180 174 179 222 216 245 263 249 309 335 187 256 231 222 255 257 259 260 178 194 218 216 221 234 236 228 226 229 233 234 236
249 247 242 241 242 242 237 231 229 225 221 213 201 202 202 200 213 218 172 162 184 189 174 167 166 158 109 136 147 136 108 84 93 138 160 159 157 161 178 151 149 159 150 133 119 124 186 206 203 186 164 144 147 154 169 198 196 184 174 161 222 239 263 285 258 289 348 199 266 224 200 255 262 257 246 189 206 232 222 216 225 225 224 230 229 233 237 242
254 251 247 244 243 243 239 232 228 223 216 210 204 208 210 209 220 232 205 143 168 180 181 172 166 152 130 136 155 147 133 150 153 177 176 167 167 166 157 154 154 142 147 162 160 159 188 220 201 184 154 140 159 175 167 199 218 197 174 165 215 220 199 278 297 327 349 274 254 170 204 264 269 269 259 218 216 243 240 227 230 220 215 227 229 234 233 233
257 257 254 247 243 242 239 230 225 220 213 210 212 212 208 210 220 223 226 70 151 7 186 177 160 144 145 143 164 161 153 165 161 175 178 172 160 151 157 156 148 148 169 172 163 163 195 225 178 156 159 161 174 194 176 190 215 210 189 174 198 196 192 230 298 325 310 317 122 97 345 293 266 269 266 246 224 255 258 246 249 237 225 237 250 251 235 229
259 261 259 249 243 240 235 226 219 215 211 212 218 215 206 204 205 201 206 39 154 20 169 179 164 156 152 144 167 168 135 140 153 164 172 172 152 138 154 154 148 164 168 154 145 166 223 228 153 145 172 174 177 202 193 183 200 224 208 185 198 203 206 234 328 7 336 304 271 131 308 282 288 272 253 269 301 253 252 244 249 246 234 239 250 248 238 235
262 265 260 248 239 235 233 222 213 211 209 214 216 211 201 201 202 190 188 295 184 165 164 172 173 167 159 152 165 145 131 171 159 150 161 170 159 143 148 149 118 158 153 141 137 180 215 179 151 161 175 174 181 204 202 178 179 235 219 187 198 197 192 200 160 121 214 267 285 101 190 252 309 286 249 280 304 265 264 260 256 251 239 228 231 239 236 238
265 265 257 247 235 229 227 212 208 205 204 216 211 204 193 193 203 210 202 229 201 165 158 163 173 164 163 177 169 149 158 169 129 153 170 168 159 145 156 158 123 142 146 135 164 222 154 137 162 167 167 178 188 198 202 177 167 232 213 172 180 182 198 200 173 189 222 258 315 20 138 228 283 264 262 319 306 281 280 268 262 254 243 232 230 237 235 235
264 260 252 246 235 228 225 211 199 199 208 208 200 198 189 183 195 224 228 203 182 141 144 139 132 143 137 167 176 168 149 141 139 180 182 168 159 120 163 171 152 152 162 155 182 252 135 160 183 168 167 193 194 184 180 164 177 234 180 134 150 167 192 189 170 199 228 353 294 310 124 206 262 271 303 345 268 275 277 261 256 251 245 237 235 239 237 237
261 257 251 242 234 231 227 214 199 204 206 198 189 188 180 176 186 228 233 212 159 129 139 131 135 133 113 130 170 326 133 145 150 164 161 169 165 68 159 171 142 145 164 162 174 222 165 185 181 165 177 195 191 190 172 163 187 228 137 96 72 77 78 113 156 173 96 267 245 240 202 218 262 272 290 332 257 256 263 260 256 252 248 243 244 247 248 251
260 258 250 238 231 227 220 212 209 207 198 187 180 172 165 164 178 210 211 207 136 149 148 144 156 147 143 149 155 276 157 144 117 122 139 170 99 49 108 115 102 132 155 149 174 205 283 169 157 162 184 182 173 174 168 172 167 135 108 83 65 57 54 62 83 101 119 260 246 230 216 204 266 269 236 224 224 214 230 259 264 259 260 254 250 256 258 261
261 258 251 238 226 216 207 205 209 201 186 177 166 158 157 158 182 205 200 158 132 153 145 144 150 148 153 155 155 191 164 130 133 143 153 169 127 104 123 121 94 117 144 178 195 249 41 106 162 194 174 132 125 88 17 206 144 117 105 107 119 21 35 34 9 65 198 249 258 236 167 165 237 260 238 244 256 228 215 239 255 259 268 265 255 255 254 255
265 262 255 236 217 206 199 199 198 189 178 171 158 153 172 167 191 206 167 155 167 165 148 142 146 151 158 156 156 175 160 139 152 155 161 169 166 166 163 171 168 144 174 190 180 130 105 178 237 311 235 135 131 135 22 6 139 138 124 132 154 184 152 212 249 204 220 249 266 215 149 204 238 248 254 264 269 254 229 226 242 255 267 273 270 267 264 260
271 266 247 219 203 196 197 196 188 177 172 168 162 168 184 178 200 167 138 172 181 159 151 147 153 157 158 159 162 168 155 152 163 160 163 164 163 179 182 183 170 151 171 173 151 150 188 293 279 153 269 182 152 161 165 176 178 161 151 160 172 159 174 209 222 262 251 255 271 241 217 256 269 256 241 241 249 255 244 233 236 246 258 268 275 280 283 279
274 253 216 197 191 191 194 190 180 171 167 166 171 183 184 193 187 131 150 192 160 152 155 151 152 154 158 161 161 160 149 162 169 160 157 157 162 184 200 211 189 138 107 147 155 168 176 239 215 171 189 173 167 180 163 142 156 185 166 150 168 168 176 202 202 212 236 255 277 257 216 207 206 250 236 229 253 279 276 258 251 253 257 263 279 284 279 273
258 212 187 182 186 189 187 181 174 170 165 167 184 188 190 190 140 143 165 175 151 148 146 142 143 148 158 157 156 165 152 165 170 160 161 170 176 183 186 195 189 146 133 163 179 178 179 210 262 171 156 154 164 191 145 127 157 211 149 136 197 192 152 144 183 179 174 232 260 224 226 215 204 269 266 245 275 286 274 274 274 264 264 272 282 275 264 262
211 182 175 176 180 182 179 173 170 169 166 175 189 192 190 164 147 166 159 161 161 144 134 136 143 151 157 150 157 174 262 164 164 160 173 179 182 188 187 189 181 167 162 159 136 173 176 201 332 15 28 130 158 174 148 142 173 171 140 189 218 173 121 113 211 144 102 225 255 201 246 289 314 286 289 304 294 284 272 272 268 262 275 295 278 266 261 260
180 171 168 171 174 174 172 169 167 167 170 185 194 189 163 140 172 162 156 168 162 146 142 146 158 160 154 150 164 167 155 151 161 168 177 180 191 193 189 192 180 181 183 158 131 194 153 111 338 54 96 47 131 116 73 38 137 139 183 206 187 117 108 112 182 321 83 232 267 232 231 276 288 263 308 335 284 272 265 262 274 276 277 271 261 259 257 252
165 161 156 162 167 166 166 166 165 166 176 188 188 176 142 151 171 157 157 163 157 154 155 154 164 165 159 163 170 169 161 157 170 177 172 183 214 195 186 192 181 178 186 162 145 196 143 110 330 344 135 193 14 103 122 354 72 141 184 186 133 157 197 119 170 193 179 232 276 309 268 254 209 222 297 297 249 254 262 273 298 289 269 259 262 265 266 264
151 153 149 156 160 161 162 163 162 167 189 189 179 173 152 147 159 159 160 160 158 163 166 161 163 166 168 171 168 170 172 169 173 176 176 188 214 196 185 188 179 177 180 162 153 178 141 122 230 275 192 150 44 139 186 203 23 73 123 143 126 153 175 168 167 167 176 220 256 309 298 255 217 207 209 228 236 240 248 258 270 271 270 270 271 276 281 278
146 148 133 151 155 157 158 158 161 178 190 188 166 158 147 143 157 166 167 165 163 169 172 168 166 167 171 169 162 169 175 171 173 177 183 182 187 207 193 184 167 171 168 137 137 158 132 121 159 237 328 171 172 208 189 172 159 151 145 168 183 101 120 161 162 131 146 182 190 283 285 257 234 203 193 210 231 239 240 235 237 257 269 268 269 278 284 280
150 142 122 150 153 154 153 155 180 179 177 177 163 158 153 148 151 163 172 173 169 171 170 171 174 172 167 163 160 168 169 165 176 181 182 180 179 217 200 180 156 155 150 131 148 170 160 129 145 152 168 184 217 253 190 171 170 166 172 186 178 145 123 167 228 224 110 175 178 184 266 263 236 192 199 207 217 234 244 228 231 260 267 268 281 280 276 275
152 131 134 150 154 153 153 167 180 163 174 172 156 143 146 145 147 161 172 176 174 159 77 169 177 169 165 167 162 166 166 163 179 183 176 184 188 202 186 162 147 154 156 143 153 165 119 103 113 143 198 202 237 277 173 177 148 139 189 193 165 164 148 158 211 235 132 237 162 121 270 271 227 181 203 216 218 238 254 224 238 270 271 272 292 293 284 278
150 115 135 152 156 155 159 182 169 160 176 157 137 138 147 147 154 161 167 172 175 164 137 162 169 164 171 169 158 163 165 160 178 180 103 159 188 221 165 148 143 155 157 140 151 160 126 108 99 58 311 312 329 357 29 36 74 156 235 170 153 183 157 147 185 178 172 220 165 123 260 267 262 203 216 248 299 309 273 234 236 264 275 276 286 295 297 290
134 118 130 156 161 161 168 178 170 154 150 142 135 141 135 140 157 159 166 175 177 171 167 169 172 174 173 162 162 170 168 161 175 174 107 138 182 205 157 149 152 163 165 163 166 164 147 132 124 119 78 6 340 333 295 242 173 192 205 133 150 132 98 107 145 107 213 217 172 182 245 254 275 333 13 350 323 296 270 243 225 245 270 281 281 286 291 298
136 133 96 156 164 170 176 171 161 146 142 140 138 138 128 135 164 168 168 173 178 174 172 172 166 160 152 153 159 168 166 149 158 165 118 120 88 348 158 159 164 169 158 141 143 131 129 155 150 141 155 185 192 206 215 185 152 193 145 150 171 144 142 170 134 136 234 216 174 200 239 267 301 354 15 329 289 271 268 264 250 252 263 272 277 284 292 296
145 148 131 149 166 179 180 172 161 152 147 142 136 142 142 142 166 177 169 169 174 162 147 120 136 128 134 151 151 165 170 131 123 148 114 133 143 327 173 167 166 160 129 128 136 122 104 159 183 177 187 194 182 173 145 123 138 202 190 174 182 180 178 167 127 193 212 177 194 218 205 94 291 284 293 279 258 251 272 291 293 274 267 270 269 271 279 275
151 158 159 148 160 177 181 186 170 160 155 151 144 152 153 148 156 168 173 178 170 146 115 108 146 147 157 160 155 169 172 128 124 149 139 139 124 40 148 163 154 145 130 133 148 131 98 183 201 192 201 195 152 153 151 145 172 196 185 180 189 187 176 174 201 211 165 131 227 210 152 206 252 247 246 254 247 255 277 278 268 264 277 294 287 276 275 270
143 154 157 126 119 175 176 171 170 165 159 157 153 154 156 154 155 162 172 173 163 155 131 136 169 171 169 165 161 166 165 142 146 160 154 150 139 121 141 177 190 161 141 146 171 146 132 199 199 183 199 188 120 155 164 164 177 174 174 187 191 187 186 200 218 211 145 200 232 178 169 218 228 222 243 246 225 229 250 254 266 292 311 316 303 288 280 272
106 124 128 70 114 162 154 142 157 166 159 154 146 156 159 157 160 167 165 153 166 176 165 167 178 176 172 170 164 162 167 169 175 177 169 160 154 152 157 172 224 189 151 158 185 174 167 197 184 168 177 139 128 170 169 162 152 157 184 193 190 195 201 209 221 212 191 231 239 161 229 248 219 213 242 236 201 211 243 270 304 320 282 259 253 259 261 260
124 132 115 89 129 154 150 148 161 163 159 155 152 160 165 162 164 170 166 164 172 178 178 181 181 177 174 173 170 175 183 185 184 179 168 159 160 164 167 169 169 160 146 160 173 209 180 178 155 143 149 146 158 160 158 160 158 171 201 205 201 205 209 215 222 212 215 244 253 279 277 271 220 209 236 246 230 252 274 278 285 273 245 220 226 243 246 248
92 126 129 124 133 150 152 157 162 160 166 174 164 160 167 172 171 167 170 183 180 178 185 185 179 175 174 176 184 190 191 187 180 170 160 158 160 158 158 159 149 141 132 147 150 91 93 136 118 119 153 220 198 127 122 103 100 191 237 224 212 207 209 216 216 200 207 228 235 249 260 254 218 196 218 262 277 269 266 264 263 262 248 219 223 240 243 244
82 108 115 118 130 149 155 156 160 165 172 174 165 162 169 176 173 164 163 199 196 189 191 179 168 165 175 187 195 193 183 169 153 147 150 150 144 128 120 137 151 152 147 140 137 107 119 130 126 139 169 238 342 118 127 91 68 271 250 221 204 202 204 212 223 218 215 217 214 227 242 243 207 161 179 219 228 234 247 248 241 251 247 223 224 237 242 243